"read_dt","SO2 (ppb)","flags","PMT voltage (V)","lamp voltage (V)","lamp intensity (Hz)","internal temp (C)","react chamber temp (C)","sample flow (l/min)","pres (mmHg)","SO2 bkg (ppb)","SO2 coefficient"
2016-08-05 00:00:00,2134E-3,5C000400,-0724,0825,12138,031.7,045.6,0.248,753.2,01.17,0.508
2016-08-05 00:01:00,2169E-3,5C000400,-0724,0827,12236,031.8,045.5,0.247,753.2,01.17,0.508
2016-08-05 00:02:00,2206E-3,5C000400,-0724,0827,12397,031.7,045.6,0.248,753.1,01.17,0.508
2016-08-05 00:03:00,2159E-3,5C000400,-0724,0826,12219,031.7,045.6,0.248,753.2,01.17,0.508
2016-08-05 00:04:00,2155E-3,5C000400,-0724,0827,12257,031.7,045.6,0.248,753.2,01.17,0.508
2016-08-05 00:05:00,2049E-3,5C000400,-0724,0826,12223,031.7,045.6,0.248,753.2,01.17,0.508
2016-08-05 00:06:00,2224E-3,5C000400,-0724,0826,12278,031.7,045.6,0.248,753.2,01.17,0.508
2016-08-05 00:07:00,2093E-3,5C000400,-0724,0825,12219,031.7,045.5,0.248,753.1,01.17,0.508
2016-08-05 00:08:00,2248E-3,5C000400,-0724,0826,12318,031.7,045.5,0.248,753.2,01.17,0.508
2016-08-05 00:09:00,2079E-3,5C000400,-0724,0826,12277,031.7,045.6,0.248,753.1,01.17,0.508
2016-08-05 00:10:00,2267E-3,5C000400,-0724,0825,12188,031.6,045.6,0.248,753.1,01.17,0.508
2016-08-05 00:11:00,2034E-3,5C000400,-0724,0825,12191,031.6,045.6,0.248,753.2,01.17,0.508
2016-08-05 00:12:00,2097E-3,5C000400,-0724,0826,12222,031.6,045.6,0.248,753.2,01.17,0.508
2016-08-05 00:13:00,2090E-3,5C000400,-0724,0825,12175,031.5,045.6,0.248,753.1,01.17,0.508
2016-08-05 00:14:00,2308E-3,5C000400,-0724,0825,12190,031.5,045.6,0.248,753.2,01.17,0.508
2016-08-05 00:15:00,2146E-3,5C000400,-0724,0825,12252,031.5,045.5,0.248,753.2,01.17,0.508
2016-08-05 00:16:00,2085E-3,5C000400,-0724,0825,12175,031.5,045.6,0.248,753.3,01.17,0.508
2016-08-05 00:17:00,2169E-3,5C000400,-0724,0825,12369,031.5,045.5,0.248,753.2,01.17,0.508
2016-08-05 00:18:00,2101E-3,5C000400,-0724,0825,12132,031.4,045.5,0.248,753.3,01.17,0.508
2016-08-05 00:19:00,2162E-3,5C000400,-0724,0824,12263,031.4,045.5,0.248,753.3,01.17,0.508
2016-08-05 00:20:00,2133E-3,5C000400,-0724,0825,12184,031.4,045.5,0.248,753.3,01.17,0.508
2016-08-05 00:21:00,2265E-3,5C000400,-0724,0825,12156,031.4,045.5,0.249,753.3,01.17,0.508
2016-08-05 00:22:00,2159E-3,5C000400,-0724,0825,12208,031.3,045.5,0.248,753.2,01.17,0.508
2016-08-05 00:23:00,2119E-3,5C000400,-0724,0825,12345,031.3,045.5,0.249,753.2,01.17,0.508
2016-08-05 00:24:00,2124E-3,5C000400,-0724,0826,12123,031.2,045.5,0.249,753.2,01.17,0.508
2016-08-05 00:25:00,2089E-3,5C000400,-0724,0825,12248,031.2,045.5,0.249,753.3,01.17,0.508
2016-08-05 00:26:00,2131E-3,5C000400,-0724,0826,12172,031.2,045.5,0.249,753.3,01.17,0.508
2016-08-05 00:27:00,2080E-3,5C000400,-0724,0825,12253,031.2,045.5,0.249,753.4,01.17,0.508
2016-08-05 00:28:00,2199E-3,5C000400,-0724,0825,12254,031.2,045.5,0.249,753.3,01.17,0.508
2016-08-05 00:29:00,2157E-3,5C000400,-0724,0826,12221,031.2,045.5,0.249,753.3,01.17,0.508
2016-08-05 00:30:00,2201E-3,5C000400,-0724,0825,12213,031.3,045.5,0.249,753.3,01.17,0.508
2016-08-05 00:31:00,2139E-3,5C000400,-0724,0825,12204,031.3,045.5,0.249,753.3,01.17,0.508
2016-08-05 00:32:00,2325E-3,5C000400,-0724,0826,12184,031.3,045.6,0.249,753.3,01.17,0.508
2016-08-05 00:33:00,2095E-3,5C000400,-0724,0825,12255,031.4,045.6,0.249,753.3,01.17,0.508
2016-08-05 00:34:00,2182E-3,5C000400,-0724,0825,12026,031.4,045.6,0.248,753.3,01.17,0.508
2016-08-05 00:35:00,2199E-3,5C000400,-0724,0825,12227,031.4,045.5,0.249,753.2,01.17,0.508
2016-08-05 00:36:00,2033E-3,5C000400,-0724,0825,12115,031.4,045.5,0.249,753.2,01.17,0.508
2016-08-05 00:37:00,2203E-3,5C000400,-0724,0824,12188,031.4,045.5,0.249,753.2,01.17,0.508
2016-08-05 00:38:00,2160E-3,5C000400,-0724,0825,12247,031.4,045.5,0.249,753.3,01.17,0.508
2016-08-05 00:39:00,2153E-3,5C000400,-0724,0826,12153,031.4,045.5,0.249,753.2,01.17,0.508
2016-08-05 00:40:00,2111E-3,5C000400,-0724,0825,12369,031.3,045.5,0.249,753.1,01.17,0.508
2016-08-05 00:41:00,2198E-3,5C000400,-0724,0825,12216,031.3,045.5,0.249,753.2,01.17,0.508
2016-08-05 00:42:00,2134E-3,5C000400,-0724,0825,12103,031.2,045.5,0.248,753.2,01.17,0.508
2016-08-05 00:43:00,2180E-3,5C000400,-0724,0825,12191,031.1,045.5,0.249,753.2,01.17,0.508
2016-08-05 00:44:00,2165E-3,5C000400,-0724,0826,12195,031.1,045.5,0.248,753.3,01.17,0.508
2016-08-05 00:45:00,2124E-3,5C000400,-0724,0825,12223,031.1,045.6,0.249,753.3,01.17,0.508
2016-08-05 00:46:00,2187E-3,5C000400,-0724,0824,12233,031.2,045.6,0.249,753.2,01.17,0.508
2016-08-05 00:47:00,2230E-3,5C000400,-0724,0824,12129,031.1,045.6,0.249,753.1,01.17,0.508
2016-08-05 00:48:00,2230E-3,5C000400,-0724,0826,12259,031.1,045.5,0.249,753.2,01.17,0.508
2016-08-05 00:49:00,2221E-3,5C000400,-0724,0826,12227,031.0,045.5,0.249,753.1,01.17,0.508
2016-08-05 00:50:00,2175E-3,5C000400,-0724,0825,12182,030.9,045.5,0.249,753.1,01.17,0.508
2016-08-05 00:51:00,2043E-3,5C000400,-0724,0826,12322,030.9,045.5,0.249,753.1,01.17,0.508
2016-08-05 00:52:00,2246E-3,5C000400,-0724,0825,12311,031.0,045.5,0.249,753.2,01.17,0.508
2016-08-05 00:53:00,2190E-3,5C000400,-0724,0826,12251,031.0,045.5,0.249,753.2,01.17,0.508
2016-08-05 00:54:00,2143E-3,5C000400,-0724,0825,12211,031.1,045.5,0.249,753.2,01.17,0.508
2016-08-05 00:55:00,2086E-3,5C000400,-0724,0825,12356,031.1,045.5,0.250,753.2,01.17,0.508
2016-08-05 00:56:00,2219E-3,5C000400,-0724,0825,12122,031.2,045.5,0.249,753.2,01.17,0.508
2016-08-05 00:57:00,2112E-3,5C000400,-0724,0825,12236,031.2,045.6,0.249,753.2,01.17,0.508
2016-08-05 00:58:00,2093E-3,5C000400,-0724,0826,12150,031.3,045.5,0.249,753.2,01.17,0.508
2016-08-05 00:59:00,2245E-3,5C000400,-0724,0826,12092,031.3,045.5,0.249,753.2,01.17,0.508
2016-08-05 01:00:00,2165E-3,5C000400,-0724,0825,12327,031.4,045.5,0.249,753.2,01.17,0.508
2016-08-05 01:01:00,2182E-3,5C000400,-0724,0825,12398,031.4,045.6,0.249,753.2,01.17,0.508
2016-08-05 01:02:00,2206E-3,5C000400,-0724,0826,12380,031.5,045.6,0.249,753.2,01.17,0.508
2016-08-05 01:03:00,2205E-3,5C000400,-0724,0826,12119,031.5,045.6,0.249,753.2,01.17,0.508
2016-08-05 01:04:00,2101E-3,5C000400,-0724,0826,12289,031.6,045.5,0.249,753.1,01.17,0.508
2016-08-05 01:05:00,2105E-3,5C000400,-0724,0825,12190,031.6,045.5,0.249,753.1,01.17,0.508
2016-08-05 01:06:00,2183E-3,5C000400,-0724,0826,12260,031.7,045.6,0.249,753.2,01.17,0.508
2016-08-05 01:07:00,2269E-3,5C000400,-0724,0825,12184,031.7,045.6,0.248,753.2,01.17,0.508
2016-08-05 01:08:00,2150E-3,5C000400,-0724,0825,12089,031.7,045.5,0.249,753.1,01.17,0.508
2016-08-05 01:09:00,2228E-3,5C000400,-0724,0825,12204,031.8,045.5,0.249,753.1,01.17,0.508
2016-08-05 01:10:00,2122E-3,5C000400,-0724,0825,12217,031.8,045.6,0.248,753.2,01.17,0.508
2016-08-05 01:11:00,2222E-3,5C000400,-0724,0826,12416,031.8,045.6,0.248,753.2,01.17,0.508
2016-08-05 01:12:00,2111E-3,5C000400,-0724,0826,12227,031.9,045.6,0.248,753.1,01.17,0.508
2016-08-05 01:13:00,2121E-3,5C000400,-0724,0826,12356,031.9,045.6,0.248,753.1,01.17,0.508
2016-08-05 01:14:00,2192E-3,5C000400,-0724,0826,12318,031.9,045.6,0.248,753.1,01.17,0.508
2016-08-05 01:15:00,2162E-3,5C000400,-0724,0824,12023,031.9,045.5,0.248,753.1,01.17,0.508
2016-08-05 01:16:00,2172E-3,5C000400,-0724,0825,12121,031.9,045.6,0.248,753.0,01.17,0.508
2016-08-05 01:17:00,2140E-3,5C000400,-0724,0825,12252,031.9,045.5,0.248,753.0,01.17,0.508
2016-08-05 01:18:00,2185E-3,5C000400,-0724,0825,12112,031.8,045.5,0.248,753.0,01.17,0.508
2016-08-05 01:19:00,2198E-3,5C000400,-0724,0825,12180,031.8,045.5,0.248,753.0,01.17,0.508
2016-08-05 01:20:00,2092E-3,5C000400,-0724,0825,12248,031.7,045.5,0.248,753.1,01.17,0.508
2016-08-05 01:21:00,2175E-3,5C000400,-0724,0825,12036,031.7,045.5,0.248,753.1,01.17,0.508
2016-08-05 01:22:00,2099E-3,5C000400,-0724,0825,12196,031.6,045.5,0.248,753.0,01.17,0.508
2016-08-05 01:23:00,2137E-3,5C000400,-0724,0825,12202,031.6,045.5,0.247,753.0,01.17,0.508
2016-08-05 01:24:00,2211E-3,5C000400,-0724,0826,12297,031.6,045.6,0.248,753.0,01.17,0.508
2016-08-05 01:25:00,2252E-3,5C000400,-0724,0825,12368,031.6,045.5,0.248,753.0,01.17,0.508
2016-08-05 01:26:00,2092E-3,5C000400,-0724,0825,12301,031.6,045.5,0.248,753.1,01.17,0.508
2016-08-05 01:27:00,2179E-3,5C000400,-0724,0825,12306,031.6,045.5,0.248,753.0,01.17,0.508
2016-08-05 01:28:00,2203E-3,5C000400,-0724,0826,12181,031.6,045.6,0.248,753.1,01.17,0.508
2016-08-05 01:29:00,2213E-3,5C000400,-0724,0825,12156,031.5,045.6,0.248,753.0,01.17,0.508
2016-08-05 01:30:00,2163E-3,5C000400,-0724,0826,12232,031.5,045.6,0.248,753.1,01.17,0.508
2016-08-05 01:31:00,2149E-3,5C000400,-0724,0825,12284,031.5,045.5,0.248,753.0,01.17,0.508
2016-08-05 01:32:00,2112E-3,5C000400,-0724,0826,12239,031.5,045.5,0.248,753.0,01.17,0.508
2016-08-05 01:33:00,2080E-3,5C000400,-0724,0825,12178,031.4,045.6,0.248,753.1,01.17,0.508
2016-08-05 01:34:00,2192E-3,5C000400,-0724,0825,12218,031.5,045.6,0.248,753.1,01.17,0.508
2016-08-05 01:35:00,2162E-3,5C000400,-0724,0826,12335,031.4,045.5,0.248,753.1,01.17,0.508
2016-08-05 01:36:00,2110E-3,5C000400,-0724,0824,12268,031.5,045.5,0.248,753.1,01.17,0.508
2016-08-05 01:37:00,2200E-3,5C000400,-0724,0825,12351,031.5,045.5,0.248,753.1,01.17,0.508
2016-08-05 01:38:00,2302E-3,5C000400,-0724,0824,12196,031.4,045.5,0.248,753.1,01.17,0.508
2016-08-05 01:39:00,2091E-3,5C000400,-0724,0826,12191,031.4,045.6,0.249,753.1,01.17,0.508
2016-08-05 01:40:00,2186E-3,5C000400,-0724,0825,12202,031.4,045.6,0.248,753.2,01.17,0.508
2016-08-05 01:41:00,2119E-3,5C000400,-0724,0825,12148,031.3,045.6,0.249,753.2,01.17,0.508
2016-08-05 01:42:00,2186E-3,5C000400,-0724,0825,12250,031.3,045.5,0.248,753.2,01.17,0.508
2016-08-05 01:43:00,2251E-3,5C000400,-0724,0826,12094,031.2,045.5,0.249,753.2,01.17,0.508
2016-08-05 01:44:00,2172E-3,5C000400,-0724,0824,12186,031.3,045.6,0.248,753.2,01.17,0.508
2016-08-05 01:45:00,2130E-3,5C000400,-0724,0825,12364,031.3,045.6,0.249,753.1,01.17,0.508
2016-08-05 01:46:00,2220E-3,5C000400,-0724,0825,12268,031.3,045.6,0.248,753.2,01.17,0.508
2016-08-05 01:47:00,2131E-3,5C000400,-0724,0825,12241,031.3,045.5,0.249,753.1,01.17,0.508
2016-08-05 01:48:00,2058E-3,5C000400,-0724,0825,12202,031.3,045.5,0.248,753.2,01.17,0.508
2016-08-05 01:49:00,2054E-3,5C000400,-0724,0825,12217,031.4,045.6,0.249,753.2,01.17,0.508
2016-08-05 01:50:00,2112E-3,5C000400,-0724,0825,12017,031.4,045.6,0.249,753.1,01.17,0.508
2016-08-05 01:51:00,2209E-3,5C000400,-0724,0826,12019,031.4,045.6,0.249,753.1,01.17,0.508
2016-08-05 01:52:00,2108E-3,5C000400,-0724,0826,12252,031.4,045.6,0.249,753.2,01.17,0.508
2016-08-05 01:53:00,2154E-3,5C000400,-0724,0825,12129,031.3,045.5,0.248,753.0,01.17,0.508
2016-08-05 01:54:00,2103E-3,5C000400,-0724,0825,12185,031.3,045.5,0.249,753.2,01.17,0.508
2016-08-05 01:55:00,2197E-3,5C000400,-0724,0825,12305,031.2,045.5,0.248,753.2,01.17,0.508
2016-08-05 01:56:00,2088E-3,5C000400,-0724,0825,12208,031.2,045.5,0.249,753.2,01.17,0.508
2016-08-05 01:57:00,2086E-3,5C000400,-0724,0826,12146,031.2,045.5,0.248,753.2,01.17,0.508
2016-08-05 01:58:00,2089E-3,5C000400,-0724,0825,12183,031.3,045.5,0.249,753.1,01.17,0.508
2016-08-05 01:59:00,2200E-3,5C000400,-0724,0826,12324,031.2,045.5,0.248,753.2,01.17,0.508
2016-08-05 02:00:00,2131E-3,5C000400,-0724,0825,12288,031.2,045.6,0.249,753.1,01.17,0.508
2016-08-05 02:01:00,2149E-3,5C000400,-0724,0825,12263,031.2,045.5,0.248,753.1,01.17,0.508
2016-08-05 02:02:00,2170E-3,5C000400,-0724,0825,12159,031.1,045.5,0.249,753.1,01.17,0.508
2016-08-05 02:03:00,2199E-3,5C000400,-0724,0825,12341,031.1,045.5,0.248,753.0,01.17,0.508
2016-08-05 02:04:00,2116E-3,5C000400,-0724,0825,12203,031.1,045.6,0.249,752.9,01.17,0.508
2016-08-05 02:05:00,2108E-3,5C000400,-0724,0825,12265,031.1,045.6,0.248,753.0,01.17,0.508
2016-08-05 02:06:00,2010E-3,5C000400,-0724,0825,12302,031.1,045.5,0.249,753.1,01.17,0.508
2016-08-05 02:07:00,2124E-3,5C000400,-0724,0825,12256,031.0,045.5,0.249,753.0,01.17,0.508
2016-08-05 02:08:00,2008E-3,5C000400,-0724,0826,12215,031.0,045.5,0.249,753.1,01.17,0.508
2016-08-05 02:09:00,2246E-3,5C000400,-0724,0826,12279,031.0,045.5,0.249,753.0,01.17,0.508
2016-08-05 02:10:00,2096E-3,5C000400,-0724,0826,12132,031.0,045.5,0.249,753.1,01.17,0.508
2016-08-05 02:11:00,2086E-3,5C000400,-0724,0826,12168,031.1,045.5,0.249,753.0,01.17,0.508
2016-08-05 02:12:00,2145E-3,5C000400,-0724,0825,12201,031.1,045.5,0.249,753.0,01.17,0.508
2016-08-05 02:13:00,2094E-3,5C000400,-0724,0825,12237,031.1,045.5,0.249,752.9,01.17,0.508
2016-08-05 02:14:00,2120E-3,5C000400,-0724,0826,12266,031.1,045.6,0.249,753.1,01.17,0.508
2016-08-05 02:15:00,2128E-3,5C000400,-0724,0825,12202,031.0,045.6,0.249,753.1,01.17,0.508
2016-08-05 02:16:00,2153E-3,5C000400,-0724,0827,12275,031.0,045.5,0.249,753.0,01.17,0.508
2016-08-05 02:17:00,2160E-3,5C000400,-0724,0825,12175,030.9,045.5,0.249,753.2,01.17,0.508
2016-08-05 02:18:00,2157E-3,5C000400,-0724,0825,12158,030.9,045.5,0.249,753.2,01.17,0.508
2016-08-05 02:19:00,2177E-3,5C000400,-0724,0824,12164,030.9,045.5,0.249,753.1,01.17,0.508
2016-08-05 02:20:00,2098E-3,5C000400,-0724,0825,12137,030.9,045.5,0.249,753.2,01.17,0.508
2016-08-05 02:21:00,2329E-3,5C000400,-0724,0825,12238,030.9,045.5,0.249,753.1,01.17,0.508
2016-08-05 02:22:00,2188E-3,5C000400,-0724,0825,12215,030.9,045.5,0.249,753.2,01.17,0.508
2016-08-05 02:23:00,2167E-3,5C000400,-0724,0825,12293,030.8,045.5,0.250,753.2,01.17,0.508
2016-08-05 02:24:00,2119E-3,5C000400,-0724,0825,12278,030.8,045.6,0.249,753.2,01.17,0.508
2016-08-05 02:25:00,2101E-3,5C000400,-0724,0825,12254,030.7,045.5,0.250,753.2,01.17,0.508
2016-08-05 02:26:00,2092E-3,5C000400,-0724,0825,12156,030.7,045.5,0.250,753.1,01.17,0.508
2016-08-05 02:27:00,2137E-3,5C000400,-0724,0825,12100,030.7,045.5,0.249,753.1,01.17,0.508
2016-08-05 02:28:00,2086E-3,5C000400,-0724,0825,12273,030.7,045.5,0.250,753.2,01.17,0.508
2016-08-05 02:29:00,1975E-3,5C000400,-0724,0824,12363,030.6,045.5,0.249,753.3,01.17,0.508
2016-08-05 02:30:00,2017E-3,5C000400,-0724,0825,12180,030.7,045.5,0.250,753.4,01.17,0.508
2016-08-05 02:31:00,2023E-3,5C000400,-0724,0825,12310,030.7,045.5,0.249,753.3,01.17,0.508
2016-08-05 02:32:00,2163E-3,5C000400,-0724,0825,12091,030.6,045.5,0.250,753.4,01.17,0.508
2016-08-05 02:33:00,2110E-3,5C000400,-0724,0825,12379,030.6,045.5,0.249,753.3,01.17,0.508
2016-08-05 02:34:00,2165E-3,5C000400,-0724,0825,12234,030.6,045.5,0.250,753.4,01.17,0.508
2016-08-05 02:35:00,2143E-3,5C000400,-0724,0825,12314,030.5,045.5,0.250,753.5,01.17,0.508
2016-08-05 02:36:00,2172E-3,5C000400,-0724,0825,12298,030.5,045.5,0.250,753.4,01.17,0.508
2016-08-05 02:37:00,2132E-3,5C000400,-0724,0825,12295,030.5,045.5,0.250,753.5,01.17,0.508
2016-08-05 02:38:00,2180E-3,5C000400,-0724,0825,12121,030.4,045.5,0.250,753.4,01.17,0.508
2016-08-05 02:39:00,2149E-3,5C000400,-0724,0825,12141,030.4,045.5,0.250,753.3,01.17,0.508
2016-08-05 02:40:00,2043E-3,5C000400,-0724,0825,12159,030.4,045.5,0.250,753.4,01.17,0.508
2016-08-05 02:41:00,2102E-3,5C000400,-0724,0825,12336,030.3,045.5,0.250,753.4,01.17,0.508
2016-08-05 02:42:00,2229E-3,5C000400,-0724,0825,12185,030.3,045.5,0.250,753.4,01.17,0.508
2016-08-05 02:43:00,2284E-3,5C000400,-0724,0825,12129,030.3,045.5,0.250,753.5,01.17,0.508
2016-08-05 02:44:00,2066E-3,5C000400,-0724,0826,12122,030.3,045.5,0.250,753.5,01.17,0.508
2016-08-05 02:45:00,2094E-3,5C000400,-0724,0826,12222,030.3,045.5,0.250,753.4,01.17,0.508
2016-08-05 02:46:00,2388E-3,5C000400,-0724,0826,12304,030.3,045.5,0.251,753.4,01.17,0.508
2016-08-05 02:47:00,2135E-3,5C000400,-0724,0826,12158,030.2,045.5,0.250,753.6,01.17,0.508
2016-08-05 02:48:00,2159E-3,5C000400,-0724,0826,12271,030.2,045.5,0.251,753.5,01.17,0.508
2016-08-05 02:49:00,2210E-3,5C000400,-0724,0826,12275,030.2,045.5,0.250,753.5,01.17,0.508
2016-08-05 02:50:00,2237E-3,5C000400,-0724,0825,12283,030.2,045.5,0.251,753.5,01.17,0.508
2016-08-05 02:51:00,2227E-3,5C000400,-0724,0826,12123,030.2,045.5,0.251,753.4,01.17,0.508
2016-08-05 02:52:00,2304E-3,5C000400,-0724,0825,12208,030.2,045.5,0.251,753.5,01.17,0.508
2016-08-05 02:53:00,2096E-3,5C000400,-0724,0825,12211,030.2,045.5,0.251,753.5,01.17,0.508
2016-08-05 02:54:00,2122E-3,5C000400,-0724,0825,12238,030.1,045.5,0.250,753.5,01.17,0.508
2016-08-05 02:55:00,2269E-3,5C000400,-0724,0825,12306,030.1,045.5,0.251,753.5,01.17,0.508
2016-08-05 02:56:00,2239E-3,5C000400,-0724,0826,12217,030.1,045.5,0.250,753.6,01.17,0.508
2016-08-05 02:57:00,2102E-3,5C000400,-0724,0825,12189,030.1,045.5,0.251,753.6,01.17,0.508
2016-08-05 02:58:00,2202E-3,5C000400,-0724,0825,12111,030.1,045.5,0.251,753.5,01.17,0.508
2016-08-05 02:59:00,2132E-3,5C000400,-0724,0826,12287,030.1,045.5,0.251,753.5,01.17,0.508
2016-08-05 03:00:00,2102E-3,5C000400,-0724,0825,12228,030.1,045.5,0.251,753.6,01.17,0.508
2016-08-05 03:01:00,2130E-3,5C000400,-0724,0826,12247,030.2,045.5,0.251,753.4,01.17,0.508
2016-08-05 03:02:00,2117E-3,5C000400,-0724,0825,12124,030.1,045.5,0.251,753.4,01.17,0.508
2016-08-05 03:03:00,2114E-3,5C000400,-0724,0825,12428,030.0,045.5,0.251,753.5,01.17,0.508
2016-08-05 03:04:00,2301E-3,5C000400,-0724,0825,12165,030.0,045.5,0.251,753.6,01.17,0.508
2016-08-05 03:05:00,2269E-3,5C000400,-0724,0825,12316,030.0,045.5,0.251,753.6,01.17,0.508
2016-08-05 03:06:00,2101E-3,5C000400,-0724,0826,12189,030.0,045.5,0.251,753.6,01.17,0.508
2016-08-05 03:07:00,2201E-3,5C000400,-0724,0824,12162,030.0,045.5,0.251,753.6,01.17,0.508
2016-08-05 03:08:00,2151E-3,5C000400,-0724,0824,12048,030.0,045.5,0.251,753.5,01.17,0.508
2016-08-05 03:09:00,2310E-3,5C000400,-0724,0825,12148,030.0,045.5,0.251,753.6,01.17,0.508
2016-08-05 03:10:00,2021E-3,5C000400,-0724,0824,12258,030.0,045.5,0.251,753.6,01.17,0.508
2016-08-05 03:11:00,2165E-3,5C000400,-0724,0825,12304,030.0,045.5,0.251,753.6,01.17,0.508
2016-08-05 03:12:00,2057E-3,5C000400,-0724,0825,12189,030.0,045.5,0.251,753.4,01.17,0.508
2016-08-05 03:13:00,2132E-3,5C000400,-0724,0825,12084,029.9,045.5,0.251,753.5,01.17,0.508
2016-08-05 03:14:00,2112E-3,5C000400,-0724,0825,12244,029.9,045.5,0.251,753.6,01.17,0.508
2016-08-05 03:15:00,2080E-3,5C000400,-0724,0825,12224,029.9,045.5,0.251,753.5,01.17,0.508
2016-08-05 03:16:00,2204E-3,5C000400,-0724,0825,12336,029.9,045.5,0.251,753.5,01.17,0.508
2016-08-05 03:17:00,2182E-3,5C000400,-0724,0826,12307,029.8,045.5,0.251,753.4,01.17,0.508
2016-08-05 03:18:00,2026E-3,5C000400,-0724,0824,12359,029.8,045.5,0.251,753.5,01.17,0.508
2016-08-05 03:19:00,2221E-3,5C000400,-0724,0825,12294,029.8,045.5,0.251,753.5,01.17,0.508
2016-08-05 03:20:00,1962E-3,5C000400,-0724,0825,12218,029.7,045.5,0.251,753.6,01.17,0.508
2016-08-05 03:21:00,2159E-3,5C000400,-0724,0825,12348,029.7,045.5,0.251,753.5,01.17,0.508
2016-08-05 03:22:00,2167E-3,5C000400,-0724,0825,12278,029.7,045.5,0.252,753.5,01.17,0.508
2016-08-05 03:23:00,2131E-3,5C000400,-0724,0825,12184,029.7,045.5,0.251,753.4,01.17,0.508
2016-08-05 03:24:00,2056E-3,5C000400,-0724,0825,12216,029.6,045.5,0.252,753.4,01.17,0.508
2016-08-05 03:25:00,2190E-3,5C000400,-0724,0824,12030,029.6,045.5,0.252,753.4,01.17,0.508
2016-08-05 03:26:00,2096E-3,5C000400,-0724,0825,12218,029.6,045.5,0.251,753.5,01.17,0.508
2016-08-05 03:27:00,2187E-3,5C000400,-0724,0825,12335,029.6,045.5,0.252,753.5,01.17,0.508
2016-08-05 03:28:00,2059E-3,5C000400,-0724,0825,12128,029.6,045.5,0.252,753.5,01.17,0.508
2016-08-05 03:29:00,2067E-3,5C000400,-0724,0825,12405,029.6,045.5,0.252,753.4,01.17,0.508
2016-08-05 03:30:00,2099E-3,5C000400,-0724,0824,12227,029.6,045.5,0.252,753.5,01.17,0.508
2016-08-05 03:31:00,2110E-3,5C000400,-0724,0825,12226,029.6,045.5,0.252,753.5,01.17,0.508
2016-08-05 03:32:00,2154E-3,5C000400,-0724,0825,12197,029.6,045.5,0.252,753.5,01.17,0.508
2016-08-05 03:33:00,2058E-3,5C000400,-0724,0825,12257,029.6,045.5,0.251,753.5,01.17,0.508
2016-08-05 03:34:00,2063E-3,5C000400,-0724,0825,12282,029.5,045.5,0.252,753.5,01.17,0.508
2016-08-05 03:35:00,2133E-3,5C000400,-0724,0825,12264,029.5,045.5,0.252,753.5,01.17,0.508
2016-08-05 03:36:00,2013E-3,5C000400,-0724,0825,12205,029.5,045.5,0.252,753.5,01.17,0.508
2016-08-05 03:37:00,2193E-3,5C000400,-0724,0825,12206,029.5,045.5,0.252,753.5,01.17,0.508
2016-08-05 03:38:00,2197E-3,5C000400,-0724,0825,12278,029.5,045.5,0.252,753.5,01.17,0.508
2016-08-05 03:39:00,2122E-3,5C000400,-0724,0825,12279,029.5,045.5,0.252,753.5,01.17,0.508
2016-08-05 03:40:00,2178E-3,5C000400,-0724,0825,12384,029.4,045.5,0.252,753.4,01.17,0.508
2016-08-05 03:41:00,2070E-3,5C000400,-0724,0825,12260,029.5,045.5,0.252,753.4,01.17,0.508
2016-08-05 03:42:00,2028E-3,5C000400,-0724,0826,12276,029.4,045.5,0.252,753.4,01.17,0.508
2016-08-05 03:43:00,2199E-3,5C000400,-0724,0825,12342,029.4,045.5,0.252,753.5,01.17,0.508
2016-08-05 03:44:00,2064E-3,5C000400,-0724,0825,12282,029.4,045.5,0.252,753.5,01.17,0.508
2016-08-05 03:45:00,1951E-3,5C000400,-0724,0826,12204,029.4,045.5,0.252,753.4,01.17,0.508
2016-08-05 03:46:00,2085E-3,5C000400,-0724,0824,12293,029.4,045.5,0.252,753.4,01.17,0.508
2016-08-05 03:47:00,2099E-3,5C000400,-0724,0825,12136,029.4,045.5,0.253,753.4,01.17,0.508
2016-08-05 03:48:00,2187E-3,5C000400,-0724,0825,11976,029.4,045.5,0.252,753.4,01.17,0.508
2016-08-05 03:49:00,2198E-3,5C000400,-0724,0825,12162,029.4,045.5,0.252,753.4,01.17,0.508
2016-08-05 03:50:00,2115E-3,5C000400,-0724,0825,12236,029.3,045.5,0.252,753.4,01.17,0.508
2016-08-05 03:51:00,2021E-3,5C000400,-0724,0825,12120,029.3,045.5,0.252,753.4,01.17,0.508
2016-08-05 03:52:00,2084E-3,5C000400,-0724,0825,12299,029.3,045.5,0.252,753.3,01.17,0.508
2016-08-05 03:53:00,2154E-3,5C000400,-0724,0825,12320,029.3,045.5,0.252,753.2,01.17,0.508
2016-08-05 03:54:00,2178E-3,5C000400,-0724,0825,12244,029.3,045.5,0.252,753.4,01.17,0.508
2016-08-05 03:55:00,2133E-3,5C000400,-0724,0825,12186,029.3,045.5,0.253,753.4,01.17,0.508
2016-08-05 03:56:00,2105E-3,5C000400,-0724,0825,12319,029.2,045.5,0.252,753.4,01.17,0.508
2016-08-05 03:57:00,2160E-3,5C000400,-0724,0825,12176,029.3,045.5,0.252,753.4,01.17,0.508
2016-08-05 03:58:00,2268E-3,5C000400,-0724,0825,12278,029.3,045.5,0.253,753.4,01.17,0.508
2016-08-05 03:59:00,2300E-3,5C000400,-0724,0824,12231,029.3,045.5,0.252,753.4,01.17,0.508
2016-08-05 04:00:00,2037E-3,5C000400,-0724,0825,12335,029.3,045.5,0.253,753.4,01.17,0.508
2016-08-05 04:01:00,2031E-3,5C000400,-0724,0825,12242,029.3,045.5,0.253,753.4,01.17,0.508
2016-08-05 04:02:00,2080E-3,5C000400,-0724,0825,12251,029.3,045.5,0.253,753.2,01.17,0.508
2016-08-05 04:03:00,2112E-3,5C000400,-0724,0825,12266,029.4,045.5,0.253,753.3,01.17,0.508
2016-08-05 04:04:00,2080E-3,5C000400,-0724,0825,12393,029.3,045.5,0.252,753.3,01.17,0.508
2016-08-05 04:05:00,2199E-3,5C000400,-0724,0825,12237,029.3,045.5,0.253,753.4,01.17,0.508
2016-08-05 04:06:00,1974E-3,5C000400,-0724,0825,12323,029.3,045.5,0.252,753.5,01.17,0.508
2016-08-05 04:07:00,2124E-3,5C000400,-0724,0825,12176,029.3,045.5,0.253,753.5,01.17,0.508
2016-08-05 04:08:00,2103E-3,5C000400,-0724,0825,12283,029.3,045.5,0.252,753.5,01.17,0.508
2016-08-05 04:09:00,2088E-3,5C000400,-0724,0825,12270,029.3,045.5,0.252,753.5,01.17,0.508
2016-08-05 04:10:00,2224E-3,5C000400,-0724,0825,12268,029.3,045.5,0.253,753.6,01.17,0.508
2016-08-05 04:11:00,2200E-3,5C000400,-0724,0825,12210,029.3,045.5,0.252,753.6,01.17,0.508
2016-08-05 04:12:00,2193E-3,5C000400,-0724,0825,12228,029.2,045.5,0.253,753.6,01.17,0.508
2016-08-05 04:13:00,1908E-3,5C000400,-0724,0826,12377,029.2,045.5,0.253,753.6,01.17,0.508
2016-08-05 04:14:00,2100E-3,5C000400,-0724,0826,12182,029.2,045.5,0.252,753.5,01.17,0.508
2016-08-05 04:15:00,2044E-3,5C000400,-0724,0826,12202,029.2,045.5,0.253,753.4,01.17,0.508
2016-08-05 04:16:00,2204E-3,5C000400,-0724,0825,12290,029.2,045.5,0.253,753.4,01.17,0.508
2016-08-05 04:17:00,2173E-3,5C000400,-0724,0825,12284,029.2,045.5,0.252,753.4,01.17,0.508
2016-08-05 04:18:00,2069E-3,5C000400,-0724,0825,12355,029.2,045.5,0.253,753.6,01.17,0.508
2016-08-05 04:19:00,2153E-3,5C000400,-0724,0825,12184,029.2,045.5,0.253,753.7,01.17,0.508
2016-08-05 04:20:00,2114E-3,5C000400,-0724,0825,12179,029.2,045.5,0.252,753.7,01.17,0.508